Other Public Products
Issued by NWS Grand Forks, ND

Home | Current Version | Previous Version | Graphics & Text | Print | Product List | Glossary Off
Versions: 1 2 3 4 5 6 7 8 9 10 11 12 13 14 15 16 17 18 19 20 21 22 23 24 25 26 27 28 29 30 31 32 33 34 35 36 37 38 39 40 41 42 43 44 45 46 47 48 49 50

000
FPUS83 KFGF 212210
OPUFGF
PRAIRIE TO PINES WEATHER ROUNDUP
NATIONAL WEATHER SERVICE EASTERN NORTH DAKOTA/GRAND FORKS ND
500 PM CDT MON AUG 21 2017

 **SATELLITE DATA USED TO AUGMENT SKY COVER AT AUTOMATED STATIONS**
 *****  WEATHER ACROSS EASTERN NORTH DAKOTA  *****

CITY           SKY/WX    TMP DP  RH WIND       PRES   REMARKS
GRAND FORKS    PTSUNNY   74  56  53 NW8       29.88R
GRAND FORKS AF CLOUDY    73  55  53 N5        29.89R
GRAND CITY NWS NOT AVBL
BUXTON         NOT AVBL
DEVILS LAKE    FAIR      72  52  49 NW21G29   29.93S
FARGO          FAIR      75  60  59 N9        29.86S
WAHPETON ARPT  FAIR      72  59  64 NW10      29.87S
$$

 *****  WEATHER ACROSS CENTRAL AND WESTERN NORTH DAKOTA  *****

CITY           SKY/WX    TMP DP  RH WIND       PRES   REMARKS
JAMESTOWN      FAIR      74  56  53 NW22G29   29.91R
BISMARCK       FAIR      77  43  29 NW22G29   30.02R
MINOT          FAIR      76  40  27 NW17G30   30.01R
MINOT AFB      FAIR      75  37  25 NW22G29   30.00R
GARRISON         N/A     74  39  28 NW22G37   30.02S
WILLISTON      FAIR      76  37  24 NW18G24   30.10S
DICKINSON      FAIR      75  41  29 NW16G26   30.08S
HETTINGER      FAIR      77  40  26 N15G24    30.10F
$$

 *****  OTHER OBSERVATIONS NORTHEAST NORTH DAKOTA  *****

CITY           SKY/WX    TMP DP  RH WIND       PRES   REMARKS
WALHALLA       FAIR      73  70  88 N8G16     29.88S
LANGDON        FAIR      72  52  49 NW21G26   29.92R
CAVALIER       FAIR      70  55  60 CALM      29.88S
GRAFTON        MOCLDY    72  57  60 W5        29.89F
CANDO          FAIR      72  50  46 N18G30    29.96R
FORT TOTTEN      N/A     73  54  50 NW7       29.95S
ROLLA          FAIR      68  45  42 N17G25    29.98R
RUGBY          FAIR      73  43  33 NW21G31   29.97R
 ***** THE ABOVE OBSERVATIONS ARE NON NWS ARE NOT QUALITY
        CONTROLLED AND MAY MIS-REPORT RAIN FOR SNOW...
$$

 *****  OTHER OBSERVATIONS SOUTHEAST NORTH DAKOTA *****

CITY           SKY/WX    TMP DP  RH WIND       PRES   REMARKS
COOPERSTOWN    FAIR      73  55  53 NW20G25   29.92R
VALLEY CITY      N/A     73  55  53 NW17G23   29.92R
OAKES          NOT AVBL
GWINNER        CLEAR     75  59  57 NW18      29.89S
SHEYENNE NWR     N/A     76  59  54 NW12      29.95S
BUFFALO        NOT AVBL
WYNDMERE       NOT AVBL
 ***** THE ABOVE OBSERVATIONS ARE NON NWS ARE NOT QUALITY
       CONTROLLED AND MAY MIS-REPORT RAIN FOR SNOW...
$$

  *****  WEATHER ACROSS NORTHERN MINNESOTA  *****

CITY           SKY/WX    TMP DP  RH WIND       PRES   REMARKS
FLAG ISLAND    CLOUDY    64  52  63 CALM      29.89R
WARROAD        FAIR      66  55  68 CALM      29.90S
ROSEAU           N/A     66  57  72 CALM      29.90R
HALLOCK        FAIR      70  54  56 N6        29.88F
THF RVR FALLS  PTSUNNY   70  53  54 NW3       29.89S
HALSTAD        NOT AVBL
FOSSTON        CLOUDY    70  61  73 CALM      29.88F
BAUDETTE       CLOUDY    66  56  70 E7        29.88F
WASKISH        CLOUDY    63  59  88 CALM      29.90F
CROOKSTON      FAIR      72  55  56 N7        29.88R
$$
  *****  WEATHER ACROSS CENTRAL AND WEST MINNESOTA  *****

CITY           SKY/WX    TMP DP  RH WIND       PRES   REMARKS
BEMIDJI        PTSUNNY   68  54  60 NE5       29.89F
PARK RAPIDS    CLOUDY    73  58  59 CALM      29.88F
WADENA         CLOUDY    68  63  83 S6          N/A
DETROIT LAKES  PTSUNNY   70  61  73 CALM      29.88F
MOORHEAD       FAIR      73  61  64 W7        29.87S
FERGUS FALLS   PTSUNNY   72  63  73 NW8       29.86F
ELBOW LAKE     CLOUDY    69  64  84 NW5       29.88F HAZE
MORRIS MN      FAIR      73  64  73 W8        29.88R
STAPLES        CLOUDY    70  63  78 S7        29.89F
WHEATON        FAIR      73  59  60 W12       29.89R
$$
  *****  WEATHER ELSEWHERE ACROSS MINNESOTA  *****

CITY           SKY/WX    TMP DP  RH WIND       PRES   REMARKS
DULUTH         PTSUNNY   66  57  72 E7        29.90F
INTRNTL FALLS  LGT RAIN  63  59  87 VRB3      29.92S
ELY            DRIZZLE   61  59  94 CALM      29.94S
CLOQUET        FAIR      68  57  68 CALM      29.90F
BRAINERD       PTSUNNY   70  62  76 S8        29.88F
HIBBING        CLOUDY    65  57  75 N3        29.91S
ALEXANDRIA     FAIR      69  63  81 SW9       29.90F
SAINT CLOUD    FAIR      69  66  90 W3        29.89F
MINNEAPOLIS    CLOUDY    70  65  84 SW8       29.91S
$$

  *****  WEATHER ACROSS SOUTH DAKOTA  *****

CITY           SKY/WX    TMP DP  RH WIND       PRES   REMARKS
SIOUX FALLS    PTSUNNY   70  67  90 W5        29.95R
BROOKINGS      FAIR      71  64  78 NW9       29.95R
WATERTOWN      PTSUNNY   74  62  66 NW16      29.92R
HURON          FAIR      77  65  66 NW10      29.94R
SISSETON         N/A     75  63  66 NW16G26   29.87S
ABERDEEN       FAIR      79  61  53 NW16G24   29.93S
MITCHELL       FAIR      77  66  68 N12       29.96R
PIERRE         FAIR      81  58  45 N20       29.97S
MOBRIDGE       FAIR      80  55  42 N20G28    29.97R
RAPID CITY     FAIR      79  40  24 N17G29    30.12S
$$

  *****  SOME WEATHER IN NEARBY STATES *****

CITY           SKY/WX    TMP DP  RH WIND       PRES   REMARKS
GLASGOW MT     FAIR      76  34  21 NW13G20   30.14S
GREAT FALLS MT FAIR      77  34  21 NW12      30.17F
CHEYENNE WY    FAIR      78  38  23 NE10G21   30.24S
SCOTTSBLUFF NE FAIR      84  46  26 NE12      30.13R
OMAHA NE       PTSUNNY   82  72  71 S5        29.94R
DES MOINES IA  CLOUDY    85  71  63 SW12      29.93S HX  90
DAVENPORT IA   FAIR      79  70  74 SW5       29.99S
CHICAGO IL     PTSUNNY   85  65  51 S9        29.97F
EAU CLAIRE WI  LGT RAIN  74  67  78 S13       29.90F
LA CROSSE WI   LGT RAIN  76  67  73 CALM      29.96R
$$

  *****  SOME NATIONAL WEATHER *****

CITY           SKY/WX    TMP DP  RH WIND       PRES   REMARKS
LA GUARDIA NY  FAIR      85  67  54 S14       30.11S
RALEIGH NC     FAIR      90  69  50 S7        30.15F HX  94
ATLANTA GA     FAIR      90  69  50 SE7       30.15S HX  94
NEW ORLEANS LA FAIR      92  72  51 E6        30.04F HX  99
OKLAHOMA CITY  FAIR      91  69  48 SW16      30.03F HX  96
ALBUQUERQUE NM PTSUNNY   76  55  48 SW8       30.21F
SALT LAKE CITY FAIR      91  44  19 NW8       30.09F
LOS ANGELES CA FAIR      75  62  64 W15       29.99F
BOISE ID       FAIR      86  38  18 NW8       30.08F
SEATTLE WA     FAIR      80  52  37 N10       30.08F
$$

*** WEATHER ACROSS MANITOBA...SASKATCHEWAN AND ONTARIO ***
                ***ONTARIO***

CITY           SKY/WX    TMP DP  RH WIND       PRES   REMARKS
GERALDTON      PTSUNNY   72  48  43 SW9       29.89F
THUNDER BAY    LGT RAIN  68  57  68 S7        29.93R
SIOUX LOOKOUT  CLOUDY    61  54  77 N3        29.91S
TORONTO        PTSUNNY   84  66  54 W10       30.01F
BIG TROUT LK   PTSUNNY   72  45  37 W15G21    29.70S
PICKLE LAKE    PTSUNNY   66  48  52 W12G20    29.86S
DRYDEN         CLOUDY    61  52  72 VRB2      29.92S
KENORA         PTSUNNY   59  55  88 NE3       29.91F
$$
                *** MANITOBA***

CITY           SKY/WX    TMP DP  RH WIND       PRES   REMARKS
BRANDON        MOSUNNY   68  41  37 NW18G29   29.95R
DAUPHIN        PTSUNNY   68  39  34 NW15G25   29.93S
ISLAND LAKE    NOT AVBL
PILOT MOUND      N/A     70  46  43 NW15G22     N/A
THE PAS        PTSUNNY   68  46  45 NW15G23   29.89R
THOMPSON       PTSUNNY   63  48  59 NW7       29.81S
WINNIPEG       PTSUNNY   64  55  72 E6        29.91F
LYNN LAKE      CLOUDY    61  50  67 MISG      29.87R
CHURCHILL      CLOUDY    52  50  93 NE17      29.85R FOG
GILLAM         LGT RAIN  54  52  94 N13G18    29.78S
$$
                ***SASKATCHEWAN***

CITY           SKY/WX    TMP DP  RH WIND       PRES   REMARKS
ESTEVAN        MOSUNNY   72  37  28 NW21G26   30.06S
KINDERSLEY     PTSUNNY   72  36  26 W13       30.13F
LLOYDMINSTER   PTSUNNY   68  46  45 W12       30.09F
PRINCE ALBERT  MOSUNNY   72  39  30 N18G25    30.05F
REGINA         MOSUNNY   72  32  23 NW17G23   30.09S
YORKTON        MOSUNNY   68  41  37 NW17G25   30.01S



USA.gov is the U.S. government's official web portal to all federal, state and local government web resources and services.